George, South Africa

11:57 AM SAST on April 24, 2017 (GMT +0200)
George

Weather History for FAGG - January, 2015

Change the Weather History Date:

Saturday, January 24, 2015

  Actual Average Record
Temperature  
Mean Temperature 70 °F -  
Max Temperature 80 °F 74 °F 83 °F (2017)
Min Temperature 61 °F 59 °F 59 °F (2014)
Cooling Degree Days 6    
Growing Degree Days 20 (Base 50)    
Moisture  
Dew Point 67 °F    
Average Humidity 83    
Maximum Humidity 100    
Minimum Humidity 60    
Precipitation  
Precipitation 0.00 in - - ()
Sea Level Pressure  
Sea Level Pressure 29.78 in    
Wind  
Wind Speed 4 mph ()    
Max Wind Speed 9 mph    
Max Gust Speed -    
Visibility 7.1 miles    
Events Fog    
Averages and records for this station are not official NWS values.
T = Trace of Precipitation, MM = Missing Value Source: Averaged Metar Reports

Daily Weather History Graph

Daily Weather History Graph

Search for Another Location

Airport or City:

Trip Planner

Search our weather history database for the weather conditions in past years. The results will help you decide how hot, cold, wet, or windy it might be!

Date:

Astronomy

Jan. 24, 2015 Rise Set
Actual Time 5:43 AM SAST 7:41 PM SAST
Civil Twilight 5:15 AM SAST 8:08 PM SAST
Nautical Twilight 4:41 AM SAST 8:42 PM SAST
Astronomical Twilight 4:05 AM SAST 9:18 PM SAST
Moon 10:03 AM SAST 10:21 PM SAST
Length of Visible Light 14h 53m
Length of Day
13h 57m
Waxing Crescent, 20% of the Moon is Illuminated
Jan 24
Waxing Crescent
Jan 27
First Quarter
Feb 4
Full
Feb 12
Last Quarter
Feb 19
New

Hourly Weather History & Observations

Time (SAST) Temp. Dew Point Humidity Pressure Visibility Wind Dir Wind Speed Gust Speed Precip Events Conditions
12:00 AM 69.8 °F 66.2 °F 88% 29.95 in 6.2 mi Calm Calm - N/A   Overcast
1:00 AM 69.8 °F 66.2 °F 88% 29.92 in 6.2 mi Variable 2.3 mph - N/A   Overcast
2:00 AM 69 °F 67 °F 89% 29.89 in 6 mi SE 3.5 mph - -   Overcast
2:00 AM 68.0 °F 66.2 °F 94% 29.89 in 6.2 mi SE 4.6 mph - N/A   Mostly Cloudy
3:00 AM 66.2 °F 64.4 °F 94% 29.86 in 5.6 mi East 4.6 mph - N/A   Unknown
4:00 AM 64.4 °F 64.4 °F 100% 29.83 in - NNE 3.5 mph - N/A   Clear
5:00 AM 64.4 °F 62.6 °F 94% 29.83 in 5.6 mi North 2.3 mph - N/A Fog Patches of Fog
6:00 AM 62.6 °F 60.8 °F 94% 29.83 in 6.2 mi NNW 2.3 mph - N/A Fog Patches of Fog
7:00 AM 64.4 °F 64.4 °F 100% 29.83 in 6.2 mi Calm Calm - N/A   Partly Cloudy
8:00 AM 67 °F 66 °F 95% 29.84 in 6 mi SE 2.3 mph - -   Mostly Cloudy
8:00 AM 68.0 °F 66.2 °F 94% 29.83 in 6.2 mi SE 3.5 mph - N/A   Mostly Cloudy
9:00 AM 71.6 °F 64.4 °F 78% 29.83 in 6.2 mi ESE 9.2 mph - N/A   Mostly Cloudy
10:00 AM 73.4 °F 64.4 °F 73% 29.80 in 6.2 mi ESE 6.9 mph - N/A   Mostly Cloudy
11:00 AM 75 °F 66 °F 68% 29.81 in 12 mi South 6.9 mph - -   Partly Cloudy
11:00 AM 75.2 °F 66.2 °F 73% 29.80 in 6.2 mi South 9.2 mph - N/A   Scattered Clouds
12:00 PM 78.8 °F 68.0 °F 69% 29.77 in 6.2 mi SSE 9.2 mph - N/A   Partly Cloudy
2:00 PM 78 °F 67 °F 60% 29.70 in 12 mi East 6.9 mph - -   Scattered Clouds
2:00 PM 78.8 °F 66.2 °F 65% 29.71 in 6.2 mi SE 9.2 mph - N/A   Partly Cloudy
3:00 PM 77.0 °F 68.0 °F 74% 29.71 in 6.2 mi East 9.2 mph - N/A   Partly Cloudy
4:00 PM 77.0 °F 68.0 °F 74% 29.68 in - ESE 5.8 mph - N/A   Clear
5:00 PM 76 °F 68 °F 71% 29.65 in 12 mi SE 4.6 mph - -   Partly Cloudy
5:00 PM 77.0 °F 68.0 °F 74% 29.65 in - SE 5.8 mph - N/A   Clear
6:00 PM 73.4 °F 68.0 °F 83% 29.68 in - West 5.8 mph - N/A   Clear
7:00 PM 73.4 °F 68.0 °F 83% 29.68 in - NNW 5.8 mph - N/A   Clear
8:00 PM 74 °F 69 °F 81% 29.69 in 12 mi South 3.5 mph - -   Scattered Clouds
8:00 PM 73.4 °F 69.8 °F 88% 29.71 in - SSE 3.5 mph - N/A   Clear
9:00 PM 71.6 °F 68.0 °F 88% 29.74 in 6.2 mi Variable 2.3 mph - N/A   Overcast
10:00 PM 73.4 °F 69.8 °F 88% 29.77 in 6.2 mi North 3.5 mph - N/A   Mostly Cloudy
11:00 PM 73.4 °F 68.0 °F 83% 29.80 in 6.2 mi Variable 2.3 mph - N/A   Overcast